FENGYUN 1C DEB

Satellite information

Favourite Embed

Satellite Type and Status

DEBRISIN ORBIT

Key statistics

Satellite FENGYUN 1C DEB at a glance.

Uptime

9615

Days in orbit

Revolutions

≈ 14.5

Per day

Orbit

SSO

Sun Synchronous Orbit

Inclination

98.9

Latest

Satellite identification and parameters

Extended collection of information and parameters for FENGYUN 1C DEB.

Object identification

Identified? True

Debris? True

Object name: FENGYUN 1C DEB

International designator: 1999-025DKH

Object number (NORAD): 35105

Object ID (CCSDS): 35105

Country: PEOPLES REPUBLIC OF CHINA (PRC)

Current information (Y/N): Y

RCS size: SMALL

Orbital parameters

Period: 99.653 minutes

Inclination: 98.9298 deg

SMA: 7120.12 km

Apoapsis: 822.109 km

Periapsis: 661.861 km

RAAN: 221.991 deg

Eccentricy: 0.0112532

Argument of periapsis: 354.7408 deg

Mean anomaly: 5.2591 deg

Mean motion: 14.45013124 rev/day

Mean motion (dot): 0.00003256 rev/day2

B* drag term: 0.00087710312 1/REarth

Two-line elements (TLE)

Creation date: Sept. 3, 2025, 10:15 a.m.

Reference frame: TEME

Reference center: EARTH

Epoch: Sept. 3, 2025, 4:56 a.m. UTC

TLE line 0: 0 FENGYUN 1C DEB

TLE line 1: 1 35105U 99025DKH 25246.20563520 .00003256 00000-0 87710-3 0 9993

TLE line 2: 2 35105 98.9298 221.9910 0112532 354.7408 5.2591 14.45013124930414

Live tracking on map

Real-time ground track for satellite FENGYUN 1C DEB.

In-orbit conjunctions

A list of the most updated potential collisions computed for object FENGYUN 1C DEB.

Target Orbit TCA Probability of collision Miss distance Type
FENGYUN 1C DEB SSO 2025-05-25 07:48:08 0.0002434299 113.0 (m) DEBRIS
SL-8 R/B LEO 2025-02-01 01:08:14 0.0001583554 574.0 (m) ROCKET BODY
NOAA 16 DEB SSO 2024-09-28 11:37:51 0.0001811282 141.0 (m) DEBRIS

Associated space launch

Chinese polar orbiting meteorological satellite

FENGYUN 1C DEB was lifted into orbit during the mission ‘Long March 4B | Feng Yun 1C’, on board a Long March 4B space rocket.

The launch took place on May 10, 1999, 1:33 a.m. from Launch Complex 7.

For more information about the launch, click the button.

Launch to space Long March 4B | Feng Yun 1C
Long March 4B | Feng Yun 1C

Agency: N/A

Status: Launch Successful

Launch date: May 10, 1999, 1:33 a.m. UTC

Rocket: Long March 4B

Launch pad: Launch Complex 7

Location: Taiyuan Satellite Launch Center, People's Republic of China

...

Latest news about this satellite

There are no fresh news available about this satellite. Check back as we update our databases every day.


Newsletter sign-up

Weekly statistics, charts and insights to help you stay on top of the space industry.